Wetterdaten: aktuell Sonntag, 17.11.2019 21:30
Datum Zeit Temp. Feuchte Luftdruck Nieders. Wind Richtung Richtung Sonnenschein Solar Taupunkt Windchill Windben
17.11.2019 21:30 6,3 C 92 % 1002,8 hPa 0,0 l/m 0,0 km/h (0 Bft) W-NW 296 0 min 0 W/m 5,1 C 6,3 C 0,0 km/h (0 Bft)
17.11.2019 21:25 6,3 C 92 % 1002,8 hPa 0,0 l/m 0,0 km/h (0 Bft) W-NW 295 0 min 0 W/m 5,1 C 6,3 C 0,0 km/h (0 Bft)
17.11.2019 21:20 6,3 C 92 % 1002,8 hPa 0,0 l/m 0,0 km/h (0 Bft) W-NW 296 0 min 0 W/m 5,1 C 6,3 C 0,0 km/h (0 Bft)
17.11.2019 21:15 6,3 C 92 % 1002,7 hPa 0,0 l/m 0,0 km/h (0 Bft) W-NW 296 0 min 0 W/m 5,1 C 6,3 C 0,0 km/h (0 Bft)
17.11.2019 21:10 6,3 C 92 % 1002,7 hPa 0,0 l/m 0,2 km/h (0 Bft) W-NW 295 0 min 0 W/m 5,1 C 6,3 C 4,8 km/h (1 Bft)
17.11.2019 21:05 6,3 C 92 % 1002,7 hPa 0,0 l/m 0,0 km/h (0 Bft) NW 315 0 min 0 W/m 5,1 C 6,3 C 0,0 km/h (0 Bft)
17.11.2019 21:00 6,3 C 92 % 1002,6 hPa 0,0 l/m 0,0 km/h (0 Bft) NW 316 0 min 0 W/m 5,1 C 6,3 C 0,0 km/h (0 Bft)
17.11.2019 20:55 6,3 C 92 % 1002,7 hPa 0,0 l/m 0,0 km/h (0 Bft) NW 316 0 min 0 W/m 5,1 C 6,3 C 0,0 km/h (0 Bft)
17.11.2019 20:50 6,3 C 92 % 1002,8 hPa 0,0 l/m 0,0 km/h (0 Bft) NW 315 0 min 0 W/m 5,1 C 6,3 C 0,0 km/h (0 Bft)
17.11.2019 20:45 6,3 C 92 % 1002,8 hPa 0,0 l/m 0,0 km/h (0 Bft) NW 316 0 min 0 W/m 5,1 C 6,3 C 0,0 km/h (0 Bft)
17.11.2019 20:40 6,2 C 93 % 1002,8 hPa 0,0 l/m 0,1 km/h (0 Bft) NW 316 0 min 0 W/m 5,2 C 6,2 C 3,2 km/h (1 Bft)
17.11.2019 20:35 6,2 C 93 % 1003,0 hPa 0,0 l/m 0,0 km/h (0 Bft) NW 316 0 min 0 W/m 5,2 C 6,2 C 0,0 km/h (0 Bft)
17.11.2019 20:30 6,2 C 93 % 1002,9 hPa 0,0 l/m 0,0 km/h (0 Bft) NW 315 0 min 0 W/m 5,2 C 6,2 C 0,0 km/h (0 Bft)
17.11.2019 20:25 6,2 C 93 % 1003,0 hPa 0,0 l/m 0,0 km/h (0 Bft) NW 316 0 min 0 W/m 5,2 C 6,2 C 0,0 km/h (0 Bft)
17.11.2019 20:20 6,1 C 93 % 1003,0 hPa 0,0 l/m 0,0 km/h (0 Bft) NW 316 0 min 0 W/m 5,1 C 6,1 C 0,0 km/h (0 Bft)
17.11.2019 20:15 6,1 C 93 % 1002,9 hPa 0,0 l/m 0,0 km/h (0 Bft) NW 316 0 min 0 W/m 5,1 C 6,1 C 0,0 km/h (0 Bft)
17.11.2019 20:10 6,1 C 93 % 1003,1 hPa 0,0 l/m 2,9 km/h (1 Bft) NW 315 0 min 0 W/m 5,1 C 6,1 C 9,7 km/h (2 Bft)
17.11.2019 20:05 6,1 C 93 % 1003,1 hPa 0,0 l/m 1,2 km/h (1 Bft) NW 311 0 min 0 W/m 5,1 C 6,1 C 8,0 km/h (2 Bft)
17.11.2019 20:00 6,0 C 93 % 1003,1 hPa 0,0 l/m 0,3 km/h (0 Bft) NW 308 0 min 0 W/m 5,0 C 6,0 C 3,2 km/h (1 Bft)
17.11.2019 19:55 6,0 C 93 % 1003,0 hPa 0,0 l/m 0,8 km/h (0 Bft) NW 307 0 min 0 W/m 5,0 C 6,0 C 4,8 km/h (1 Bft)
17.11.2019 19:50 6,0 C 93 % 1003,1 hPa 0,0 l/m 3,4 km/h (1 Bft) NW 308 0 min 0 W/m 5,0 C 6,0 C 11,3 km/h (2 Bft)
17.11.2019 19:45 6,0 C 93 % 1003,2 hPa 0,0 l/m 0,9 km/h (0 Bft) W-NW 301 0 min 0 W/m 5,0 C 6,0 C 6,4 km/h (2 Bft)
17.11.2019 19:40 6,0 C 93 % 1003,3 hPa 0,0 l/m 1,6 km/h (1 Bft) W-NW 300 0 min 0 W/m 5,0 C 6,0 C 6,4 km/h (2 Bft)
17.11.2019 19:35 6,0 C 93 % 1003,4 hPa 0,0 l/m 0,8 km/h (0 Bft) W-NW 299 0 min 0 W/m 5,0 C 6,0 C 6,4 km/h (2 Bft)
17.11.2019 19:30 6,0 C 93 % 1003,4 hPa 0,0 l/m 3,3 km/h (1 Bft) W-NW 299 0 min 0 W/m 5,0 C 6,0 C 11,3 km/h (2 Bft)
17.11.2019 19:25 6,0 C 93 % 1003,3 hPa 0,0 l/m 0,7 km/h (0 Bft) NW 306 0 min 0 W/m 5,0 C 6,0 C 11,3 km/h (2 Bft)
17.11.2019 19:20 6,0 C 93 % 1003,5 hPa 0,0 l/m 0,6 km/h (0 Bft) W-NW 299 0 min 0 W/m 5,0 C 6,0 C 6,4 km/h (2 Bft)
17.11.2019 19:15 6,0 C 93 % 1003,3 hPa 0,0 l/m 1,7 km/h (1 Bft) W-NW 298 0 min 0 W/m 5,0 C 6,0 C 9,7 km/h (2 Bft)
17.11.2019 19:10 6,0 C 93 % 1003,4 hPa 0,0 l/m 0,3 km/h (0 Bft) NW 326 0 min 0 W/m 5,0 C 6,0 C 6,4 km/h (2 Bft)
17.11.2019 19:05 6,0 C 93 % 1003,6 hPa 0,0 l/m 0,0 km/h (0 Bft) NW 325 0 min 0 W/m 5,0 C 6,0 C 1,6 km/h (1 Bft)
17.11.2019 19:00 6,0 C 93 % 1003,6 hPa 0,0 l/m 0,3 km/h (0 Bft) NW 326 0 min 0 W/m 5,0 C 6,0 C 4,8 km/h (1 Bft)
17.11.2019 18:55 5,9 C 93 % 1003,6 hPa 0,0 l/m 0,6 km/h (0 Bft) NW 325 0 min 0 W/m 4,9 C 5,9 C 6,4 km/h (2 Bft)
17.11.2019 18:50 5,9 C 93 % 1003,8 hPa 0,0 l/m 0,2 km/h (0 Bft) NW 325 0 min 0 W/m 4,9 C 5,9 C 4,8 km/h (1 Bft)
17.11.2019 18:45 5,9 C 93 % 1003,6 hPa 0,0 l/m 0,6 km/h (0 Bft) NW 325 0 min 0 W/m 4,9 C 5,9 C 8,0 km/h (2 Bft)
17.11.2019 18:40 5,9 C 93 % 1003,6 hPa 0,0 l/m 1,7 km/h (1 Bft) N-NW 331 0 min 0 W/m 4,9 C 5,9 C 12,9 km/h (3 Bft)
17.11.2019 18:35 5,9 C 93 % 1003,5 hPa 0,0 l/m 2,1 km/h (1 Bft) N-NW 338 0 min 0 W/m 4,9 C 5,9 C 8,0 km/h (2 Bft)
17.11.2019 18:30 5,9 C 93 % 1003,5 hPa 0,0 l/m 1,6 km/h (1 Bft) NW 313 0 min 0 W/m 4,9 C 5,9 C 6,4 km/h (2 Bft)
17.11.2019 18:25 5,8 C 93 % 1003,6 hPa 0,0 l/m 0,8 km/h (0 Bft) NW 313 0 min 0 W/m 4,8 C 5,8 C 6,4 km/h (2 Bft)
17.11.2019 18:20 5,8 C 93 % 1003,5 hPa 0,0 l/m 0,2 km/h (0 Bft) N 350 0 min 0 W/m 4,8 C 5,8 C 3,2 km/h (1 Bft)
17.11.2019 18:15 5,8 C 93 % 1003,4 hPa 0,0 l/m 1,4 km/h (1 Bft) N 350 0 min 0 W/m 4,8 C 5,8 C 9,7 km/h (2 Bft)
17.11.2019 18:10 5,8 C 93 % 1003,4 hPa 0,0 l/m 2,1 km/h (1 Bft) NW 319 0 min 0 W/m 4,8 C 5,8 C 6,4 km/h (2 Bft)
17.11.2019 18:05 5,8 C 93 % 1003,4 hPa 0,0 l/m 0,4 km/h (0 Bft) N-NW 328 0 min 0 W/m 4,8 C 5,8 C 6,4 km/h (2 Bft)
17.11.2019 18:00 5,8 C 93 % 1003,4 hPa 0,0 l/m 1,4 km/h (1 Bft) N 360 0 min 0 W/m 4,8 C 5,8 C 9,7 km/h (2 Bft)
17.11.2019 17:55 5,8 C 93 % 1003,5 hPa 0,0 l/m 1,6 km/h (1 Bft) N 11 0 min 0 W/m 4,8 C 5,8 C 11,3 km/h (2 Bft)
17.11.2019 17:50 5,8 C 93 % 1003,7 hPa 0,0 l/m 0,7 km/h (0 Bft) W-NW 301 0 min 0 W/m 4,8 C 5,8 C 6,4 km/h (2 Bft)
17.11.2019 17:45 5,8 C 93 % 1003,6 hPa 0,0 l/m 1,9 km/h (1 Bft) W-NW 299 0 min 0 W/m 4,8 C 5,8 C 11,3 km/h (2 Bft)
17.11.2019 17:40 5,7 C 93 % 1003,6 hPa 0,0 l/m 1,2 km/h (1 Bft) NW 311 0 min 0 W/m 4,7 C 5,7 C 8,0 km/h (2 Bft)
17.11.2019 17:35 5,7 C 93 % 1003,6 hPa 0,0 l/m 0,7 km/h (0 Bft) NW 307 0 min 0 W/m 4,7 C 5,7 C 4,8 km/h (1 Bft)
17.11.2019 17:30 5,7 C 93 % 1003,6 hPa 0,0 l/m 0,9 km/h (0 Bft) NW 321 0 min 0 W/m 4,7 C 5,7 C 6,4 km/h (2 Bft)
17.11.2019 17:25 5,7 C 93 % 1003,7 hPa 0,0 l/m 0,6 km/h (0 Bft) W-NW 300 0 min 0 W/m 4,7 C 5,7 C 8,0 km/h (2 Bft)
17.11.2019 17:20 5,7 C 93 % 1003,8 hPa 0,0 l/m 0,7 km/h (0 Bft) N-NW 339 0 min 0 W/m 4,7 C 5,7 C 9,7 km/h (2 Bft)
17.11.2019 17:15 5,7 C 93 % 1003,9 hPa 0,0 l/m 1,4 km/h (1 Bft) W-SW 254 0 min 0 W/m 4,7 C 5,7 C 8,0 km/h (2 Bft)
17.11.2019 17:10 5,7 C 93 % 1003,7 hPa 0,0 l/m 1,8 km/h (1 Bft) W-NW 289 0 min 0 W/m 4,7 C 5,7 C 6,4 km/h (2 Bft)
17.11.2019 17:05 5,6 C 93 % 1003,9 hPa 0,0 l/m 4,3 km/h (1 Bft) NW 323 0 min 0 W/m 4,6 C 5,6 C 14,5 km/h (3 Bft)
17.11.2019 17:00 5,6 C 93 % 1003,9 hPa 0,0 l/m 1,5 km/h (1 Bft) NW 304 0 min 0 W/m 4,6 C 5,6 C 8,0 km/h (2 Bft)
17.11.2019 16:55 5,6 C 93 % 1004,0 hPa 0,0 l/m 0,5 km/h (0 Bft) NW 326 0 min 0 W/m 4,6 C 5,6 C 3,2 km/h (1 Bft)
17.11.2019 16:50 5,6 C 92 % 1004,1 hPa 0,0 l/m 1,9 km/h (1 Bft) W-SW 254 0 min 0 W/m 4,4 C 5,6 C 6,4 km/h (2 Bft)
17.11.2019 16:45 5,6 C 92 % 1004,1 hPa 0,0 l/m 5,5 km/h (2 Bft) NW 325 0 min 0 W/m 4,4 C 5,6 C 16,1 km/h (3 Bft)
17.11.2019 16:40 5,6 C 92 % 1004,3 hPa 0,0 l/m 5,3 km/h (1 Bft) NW 324 0 min 0 W/m 4,4 C 5,6 C 16,1 km/h (3 Bft)
17.11.2019 16:35 5,6 C 92 % 1004,3 hPa 0,0 l/m 4,5 km/h (1 Bft) N-NW 331 0 min 0 W/m 4,4 C 5,6 C 12,9 km/h (3 Bft)
17.11.2019 16:30 5,6 C 93 % 1004,4 hPa 0,0 l/m 2,5 km/h (1 Bft) N-NW 338 0 min 0 W/m 4,6 C 5,6 C 8,0 km/h (2 Bft)
17.11.2019 16:25 5,6 C 93 % 1004,4 hPa 0,0 l/m 4,1 km/h (1 Bft) N 355 0 min 0 W/m 4,6 C 5,6 C 14,5 km/h (3 Bft)
17.11.2019 16:20 5,6 C 93 % 1004,5 hPa 0,0 l/m 3,3 km/h (1 Bft) N-NW 329 0 min 0 W/m 4,6 C 5,6 C 11,3 km/h (2 Bft)
17.11.2019 16:15 5,6 C 93 % 1004,6 hPa 0,0 l/m 3,1 km/h (1 Bft) NW 314 0 min 0 W/m 4,6 C 5,6 C 8,0 km/h (2 Bft)
17.11.2019 16:10 5,6 C 93 % 1004,6 hPa 0,0 l/m 2,6 km/h (1 Bft) N-NW 329 0 min 0 W/m 4,6 C 5,6 C 8,0 km/h (2 Bft)
17.11.2019 16:05 5,6 C 93 % 1004,7 hPa 0,0 l/m 0,2 km/h (0 Bft) N-NW 344 0 min 0 W/m 4,6 C 5,6 C 8,0 km/h (2 Bft)
17.11.2019 16:00 5,6 C 93 % 1004,8 hPa 0,0 l/m 3,8 km/h (1 Bft) NW 317 0 min 0 W/m 4,6 C 5,6 C 9,7 km/h (2 Bft)
17.11.2019 15:55 5,6 C 93 % 1004,7 hPa 0,2 l/m 5,7 km/h (2 Bft) N-NW 327 0 min 5 W/m 4,6 C 5,6 C 16,1 km/h (3 Bft)
17.11.2019 15:50 5,5 C 93 % 1004,7 hPa 0,0 l/m 3,0 km/h (1 Bft) N-NW 330 0 min 5 W/m 4,5 C 5,5 C 17,7 km/h (3 Bft)
17.11.2019 15:45 5,5 C 93 % 1004,8 hPa 0,0 l/m 2,6 km/h (1 Bft) N-NW 345 0 min 9 W/m 4,5 C 5,5 C 9,7 km/h (2 Bft)
17.11.2019 15:40 5,4 C 93 % 1004,9 hPa 0,0 l/m 1,3 km/h (1 Bft) NW 313 0 min 11 W/m 4,4 C 5,4 C 8,0 km/h (2 Bft)
17.11.2019 15:35 5,4 C 93 % 1005,0 hPa 0,0 l/m 1,2 km/h (1 Bft) N-NW 330 0 min 12 W/m 4,4 C 5,4 C 9,7 km/h (2 Bft)
17.11.2019 15:30 5,4 C 93 % 1005,1 hPa 0,0 l/m 2,4 km/h (1 Bft) W-NW 300 0 min 14 W/m 4,4 C 5,4 C 6,4 km/h (2 Bft)
17.11.2019 15:25 5,4 C 93 % 1005,2 hPa 0,0 l/m 4,4 km/h (1 Bft) N-NW 336 0 min 12 W/m 4,4 C 5,4 C 9,7 km/h (2 Bft)
17.11.2019 15:20 5,4 C 93 % 1005,2 hPa 0,0 l/m 5,6 km/h (2 Bft) N 355 0 min 12 W/m 4,4 C 5,4 C 12,9 km/h (3 Bft)
17.11.2019 15:15 5,4 C 93 % 1005,3 hPa 0,0 l/m 1,5 km/h (1 Bft) N-NW 338 0 min 12 W/m 4,4 C 5,4 C 8,0 km/h (2 Bft)
17.11.2019 15:10 5,4 C 93 % 1005,2 hPa 0,0 l/m 3,7 km/h (1 Bft) NW 325 0 min 11 W/m 4,4 C 5,4 C 6,4 km/h (2 Bft)
17.11.2019 15:05 5,3 C 93 % 1005,4 hPa 0,0 l/m 2,9 km/h (1 Bft) NW 322 0 min 9 W/m 4,3 C 5,3 C 14,5 km/h (3 Bft)
17.11.2019 15:00 5,3 C 93 % 1005,4 hPa 0,0 l/m 3,1 km/h (1 Bft) NW 311 0 min 9 W/m 4,3 C 5,3 C 8,0 km/h (2 Bft)
17.11.2019 14:55 5,3 C 93 % 1005,4 hPa 0,0 l/m 4,3 km/h (1 Bft) N-NW 341 0 min 11 W/m 4,3 C 5,3 C 11,3 km/h (2 Bft)
17.11.2019 14:50 5,3 C 93 % 1005,5 hPa 0,0 l/m 5,7 km/h (2 Bft) NW 318 0 min 11 W/m 4,3 C 5,3 C 12,9 km/h (3 Bft)
17.11.2019 14:45 5,3 C 93 % 1005,6 hPa 0,0 l/m 3,5 km/h (1 Bft) W-NW 300 0 min 12 W/m 4,3 C 5,3 C 11,3 km/h (2 Bft)
17.11.2019 14:40 5,3 C 93 % 1005,6 hPa 0,0 l/m 3,2 km/h (1 Bft) N-NW 340 0 min 12 W/m 4,3 C 5,3 C 9,7 km/h (2 Bft)
17.11.2019 14:35 5,3 C 93 % 1005,6 hPa 0,0 l/m 5,2 km/h (1 Bft) N-NW 344 0 min 12 W/m 4,3 C 5,3 C 12,9 km/h (3 Bft)
17.11.2019 14:30 5,3 C 93 % 1005,8 hPa 0,0 l/m 3,9 km/h (1 Bft) NW 309 0 min 12 W/m 4,3 C 5,3 C 9,7 km/h (2 Bft)
17.11.2019 14:25 5,3 C 93 % 1005,8 hPa 0,0 l/m 4,3 km/h (1 Bft) NW 319 0 min 14 W/m 4,3 C 5,3 C 12,9 km/h (3 Bft)
17.11.2019 14:20 5,3 C 93 % 1005,7 hPa 0,0 l/m 4,2 km/h (1 Bft) N-NW 331 0 min 16 W/m 4,3 C 5,3 C 14,5 km/h (3 Bft)
17.11.2019 14:15 5,3 C 93 % 1005,6 hPa 0,0 l/m 3,1 km/h (1 Bft) N-NW 331 0 min 21 W/m 4,3 C 5,3 C 9,7 km/h (2 Bft)
17.11.2019 14:10 5,3 C 92 % 1005,6 hPa 0,0 l/m 6,0 km/h (2 Bft) N-NW 346 0 min 26 W/m 4,1 C 5,3 C 19,3 km/h (3 Bft)
17.11.2019 14:05 5,3 C 92 % 1005,6 hPa 0,0 l/m 3,6 km/h (1 Bft) N-NW 338 0 min 39 W/m 4,1 C 5,3 C 8,0 km/h (2 Bft)
17.11.2019 14:00 5,3 C 92 % 1005,7 hPa 0,0 l/m 5,2 km/h (1 Bft) NW 325 0 min 40 W/m 4,1 C 5,3 C 16,1 km/h (3 Bft)
17.11.2019 13:55 5,3 C 92 % 1005,8 hPa 0,0 l/m 4,9 km/h (1 Bft) N 5 0 min 47 W/m 4,1 C 5,3 C 12,9 km/h (3 Bft)
17.11.2019 13:50 5,3 C 92 % 1005,8 hPa 0,0 l/m 6,8 km/h (2 Bft) N-NW 342 0 min 51 W/m 4,1 C 5,0 C 17,7 km/h (3 Bft)
17.11.2019 13:45 5,3 C 92 % 1005,8 hPa 0,0 l/m 5,3 km/h (1 Bft) N-NW 336 0 min 58 W/m 4,1 C 5,3 C 16,1 km/h (3 Bft)
17.11.2019 13:40 5,3 C 91 % 1006,1 hPa 0,0 l/m 6,0 km/h (2 Bft) N-NW 345 0 min 35 W/m 4,0 C 5,3 C 20,9 km/h (4 Bft)
17.11.2019 13:35 5,3 C 91 % 1006,3 hPa 0,0 l/m 4,8 km/h (1 Bft) NW 315 0 min 28 W/m 4,0 C 5,3 C 14,5 km/h (3 Bft)
17.11.2019 13:30 5,3 C 91 % 1006,6 hPa 0,0 l/m 6,9 km/h (2 Bft) NW 315 0 min 30 W/m 4,0 C 4,9 C 17,7 km/h (3 Bft)
17.11.2019 13:25 5,4 C 91 % 1006,6 hPa 0,0 l/m 5,6 km/h (2 Bft) N-NW 329 0 min 25 W/m 4,1 C 5,4 C 19,3 km/h (3 Bft)
17.11.2019 13:20 5,4 C 90 % 1006,9 hPa 0,0 l/m 5,3 km/h (1 Bft) N 360 0 min 28 W/m 3,9 C 5,4 C 17,7 km/h (3 Bft)
17.11.2019 13:15 5,6 C 90 % 1007,0 hPa 0,2 l/m 6,7 km/h (2 Bft) N-NW 344 0 min 30 W/m 4,1 C 5,4 C 16,1 km/h (3 Bft)
17.11.2019 13:10 5,7 C 89 % 1006,9 hPa 0,0 l/m 4,4 km/h (1 Bft) N 355 0 min 37 W/m 4,0 C 5,7 C 14,5 km/h (3 Bft)
17.11.2019 13:05 5,8 C 89 % 1006,8 hPa 0,0 l/m 2,7 km/h (1 Bft) NW 306 0 min 40 W/m 4,1 C 5,8 C 12,9 km/h (3 Bft)
17.11.2019 13:00 5,8 C 89 % 1007,2 hPa 0,0 l/m 0,8 km/h (0 Bft) NW 312 0 min 40 W/m 4,1 C 5,8 C 4,8 km/h (1 Bft)
17.11.2019 12:55 5,9 C 88 % 1007,5 hPa 0,0 l/m 1,7 km/h (1 Bft) NW 314 0 min 40 W/m 4,1 C 5,9 C 9,7 km/h (2 Bft)
17.11.2019 12:50 5,9 C 88 % 1007,5 hPa 0,0 l/m 0,9 km/h (0 Bft) N-NW 334 0 min 49 W/m 4,1 C 5,9 C 4,8 km/h (1 Bft)
17.11.2019 12:45 5,9 C 88 % 1007,0 hPa 0,0 l/m 4,1 km/h (1 Bft) N-NW 334 0 min 51 W/m 4,1 C 5,9 C 12,9 km/h (3 Bft)
17.11.2019 12:40 5,9 C 88 % 1007,1 hPa 0,0 l/m 3,2 km/h (1 Bft) NW 326 0 min 47 W/m 4,1 C 5,9 C 12,9 km/h (3 Bft)
17.11.2019 12:35 5,9 C 88 % 1007,6 hPa 0,0 l/m 2,8 km/h (1 Bft) N-NW 332 0 min 46 W/m 4,1 C 5,9 C 8,0 km/h (2 Bft)
17.11.2019 12:30 5,9 C 88 % 1007,8 hPa 0,0 l/m 0,8 km/h (0 Bft) N-NW 329 0 min 35 W/m 4,1 C 5,9 C 6,4 km/h (2 Bft)
17.11.2019 12:25 5,8 C 89 % 1007,8 hPa 0,0 l/m 0,0 km/h (0 Bft) N-NW 329 0 min 39 W/m 4,1 C 5,8 C 1,6 km/h (1 Bft)
17.11.2019 12:20 5,8 C 89 % 1007,7 hPa 0,0 l/m 0,2 km/h (0 Bft) N-NW 329 0 min 44 W/m 4,1 C 5,8 C 3,2 km/h (1 Bft)
17.11.2019 12:15 5,7 C 90 % 1007,9 hPa 0,0 l/m 0,7 km/h (0 Bft) N-NW 329 0 min 40 W/m 4,2 C 5,7 C 6,4 km/h (2 Bft)
17.11.2019 12:10 5,6 C 90 % 1007,8 hPa 0,0 l/m 0,0 km/h (0 Bft) N-NW 329 0 min 46 W/m 4,1 C 5,6 C 0,0 km/h (0 Bft)
17.11.2019 12:05 5,5 C 90 % 1007,9 hPa 0,0 l/m 0,0 km/h (0 Bft) N-NW 329 0 min 46 W/m 4,0 C 5,5 C 0,0 km/h (0 Bft)
17.11.2019 12:00 5,4 C 90 % 1008,0 hPa 0,0 l/m 0,0 km/h (0 Bft) N-NW 329 0 min 51 W/m 3,9 C 5,4 C 0,0 km/h (0 Bft)
17.11.2019 11:55 5,3 C 90 % 1008,1 hPa 0,0 l/m 2,3 km/h (1 Bft) N-NW 329 0 min 53 W/m 3,8 C 5,3 C 8,0 km/h (2 Bft)
17.11.2019 11:50 5,3 C 90 % 1008,0 hPa 0,0 l/m 2,1 km/h (1 Bft) NW 318 0 min 53 W/m 3,8 C 5,3 C 8,0 km/h (2 Bft)
17.11.2019 11:45 5,2 C 90 % 1008,1 hPa 0,0 l/m 2,8 km/h (1 Bft) NW 315 0 min 53 W/m 3,7 C 5,2 C 11,3 km/h (2 Bft)
17.11.2019 11:40 5,1 C 91 % 1008,1 hPa 0,0 l/m 4,0 km/h (1 Bft) N-NW 339 0 min 60 W/m 3,8 C 5,1 C 8,0 km/h (2 Bft)
17.11.2019 11:35 5,1 C 91 % 1008,3 hPa 0,0 l/m 3,5 km/h (1 Bft) NW 323 0 min 53 W/m 3,8 C 5,1 C 9,7 km/h (2 Bft)
17.11.2019 11:30 4,9 C 91 % 1008,2 hPa 0,0 l/m 1,9 km/h (1 Bft) N-NW 329 0 min 60 W/m 3,6 C 4,9 C 8,0 km/h (2 Bft)
17.11.2019 11:25 4,8 C 92 % 1008,4 hPa 0,0 l/m 2,1 km/h (1 Bft) N-NW 327 0 min 58 W/m 3,6 C 4,8 C 9,7 km/h (2 Bft)
17.11.2019 11:20 4,7 C 92 % 1008,2 hPa 0,0 l/m 3,8 km/h (1 Bft) N-NW 339 0 min 74 W/m 3,5 C 4,7 C 9,7 km/h (2 Bft)
17.11.2019 11:15 4,6 C 93 % 1008,2 hPa 0,0 l/m 5,8 km/h (2 Bft) W-NW 293 0 min 91 W/m 3,6 C 4,6 C 17,7 km/h (3 Bft)
17.11.2019 11:10 4,3 C 93 % 1008,3 hPa 0,0 l/m 5,2 km/h (1 Bft) N-NW 344 0 min 95 W/m 3,3 C 4,3 C 12,9 km/h (3 Bft)
17.11.2019 11:05 4,2 C 94 % 1008,5 hPa 0,0 l/m 3,7 km/h (1 Bft) N-NW 341 0 min 83 W/m 3,3 C 4,2 C 11,3 km/h (2 Bft)
17.11.2019 11:00 4,1 C 94 % 1008,8 hPa 0,0 l/m 4,5 km/h (1 Bft) NW 318 0 min 72 W/m 3,2 C 4,1 C 9,7 km/h (2 Bft)
17.11.2019 10:55 4,0 C 94 % 1009,2 hPa 0,0 l/m 2,7 km/h (1 Bft) NW 317 0 min 69 W/m 3,1 C 4,0 C 8,0 km/h (2 Bft)
17.11.2019 10:50 3,9 C 95 % 1009,4 hPa 0,0 l/m 2,7 km/h (1 Bft) N-NW 334 0 min 67 W/m 3,2 C 3,9 C 9,7 km/h (2 Bft)
17.11.2019 10:45 3,8 C 95 % 1009,5 hPa 0,0 l/m 3,0 km/h (1 Bft) N 5 0 min 72 W/m 3,1 C 3,8 C 12,9 km/h (3 Bft)
17.11.2019 10:40 3,7 C 95 % 1009,7 hPa 0,0 l/m 3,0 km/h (1 Bft) N-NW 340 0 min 81 W/m 3,0 C 3,7 C 12,9 km/h (3 Bft)
17.11.2019 10:35 3,6 C 95 % 1009,7 hPa 0,0 l/m 0,7 km/h (0 Bft) N-NW 329 0 min 79 W/m 2,9 C 3,6 C 11,3 km/h (2 Bft)
17.11.2019 10:30 3,5 C 95 % 1009,7 hPa 0,0 l/m 2,4 km/h (1 Bft) W-NW 292 0 min 84 W/m 2,8 C 3,5 C 11,3 km/h (2 Bft)
17.11.2019 10:25 3,4 C 95 % 1009,8 hPa 0,0 l/m 0,3 km/h (0 Bft) NW 304 0 min 84 W/m 2,7 C 3,4 C 3,2 km/h (1 Bft)
17.11.2019 10:20 3,3 C 95 % 1009,8 hPa 0,0 l/m 0,2 km/h (0 Bft) NW 304 0 min 84 W/m 2,6 C 3,3 C 3,2 km/h (1 Bft)
17.11.2019 10:15 3,3 C 95 % 1010,0 hPa 0,0 l/m 0,0 km/h (0 Bft) NW 311 0 min 83 W/m 2,6 C 3,3 C 0,0 km/h (0 Bft)
17.11.2019 10:10 3,2 C 96 % 1010,0 hPa 0,0 l/m 0,6 km/h (0 Bft) NW 310 0 min 77 W/m 2,6 C 3,2 C 6,4 km/h (2 Bft)
17.11.2019 10:05 3,2 C 96 % 1010,1 hPa 0,0 l/m 0,8 km/h (0 Bft) NW 311 0 min 74 W/m 2,6 C 3,2 C 9,7 km/h (2 Bft)
17.11.2019 10:00 3,1 C 96 % 1010,1 hPa 0,0 l/m 2,6 km/h (1 Bft) NW 323 0 min 72 W/m 2,5 C 3,1 C 12,9 km/h (3 Bft)
17.11.2019 09:55 3,1 C 96 % 1010,1 hPa 0,0 l/m 5,4 km/h (2 Bft) N-NW 336 0 min 70 W/m 2,5 C 3,1 C 12,9 km/h (3 Bft)
17.11.2019 09:50 3,0 C 96 % 1010,0 hPa 0,0 l/m 2,2 km/h (1 Bft) NW 319 0 min 65 W/m 2,4 C 3,0 C 11,3 km/h (2 Bft)
17.11.2019 09:45 2,9 C 96 % 1010,1 hPa 0,0 l/m 1,7 km/h (1 Bft) NW 310 0 min 62 W/m 2,3 C 2,9 C 8,0 km/h (2 Bft)
17.11.2019 09:40 2,8 C 96 % 1010,1 hPa 0,0 l/m 0,7 km/h (0 Bft) W-NW 292 0 min 51 W/m 2,2 C 2,8 C 6,4 km/h (2 Bft)
17.11.2019 09:35 2,7 C 96 % 1010,3 hPa 0,0 l/m 0,0 km/h (0 Bft) SW 224 0 min 47 W/m 2,1 C 2,7 C 0,0 km/h (0 Bft)
17.11.2019 09:30 2,7 C 96 % 1010,3 hPa 0,0 l/m 0,3 km/h (0 Bft) SW 224 0 min 42 W/m 2,1 C 2,7 C 6,4 km/h (2 Bft)
17.11.2019 09:25 2,6 C 96 % 1010,6 hPa 0,0 l/m 0,6 km/h (0 Bft) SW 224 0 min 37 W/m 2,0 C 2,6 C 4,8 km/h (1 Bft)
17.11.2019 09:20 2,6 C 96 % 1010,7 hPa 0,0 l/m 0,0 km/h (0 Bft) NW 326 0 min 35 W/m 2,0 C 2,6 C 0,0 km/h (0 Bft)
17.11.2019 09:15 2,5 C 96 % 1010,6 hPa 0,0 l/m 0,9 km/h (0 Bft) N-NW 327 0 min 32 W/m 1,9 C 2,5 C 6,4 km/h (2 Bft)
17.11.2019 09:10 2,4 C 96 % 1010,5 hPa 0,0 l/m 0,5 km/h (0 Bft) N-NW 333 0 min 30 W/m 1,8 C 2,4 C 4,8 km/h (1 Bft)
17.11.2019 09:05 2,4 C 96 % 1010,6 hPa 0,0 l/m 0,0 km/h (0 Bft) NW 319 0 min 30 W/m 1,8 C 2,4 C 0,0 km/h (0 Bft)
17.11.2019 09:00 2,4 C 96 % 1010,7 hPa 0,0 l/m 2,1 km/h (1 Bft) NW 319 0 min 28 W/m 1,8 C 2,4 C 8,0 km/h (2 Bft)
17.11.2019 08:55 2,3 C 96 % 1010,9 hPa 0,0 l/m 6,2 km/h (2 Bft) NW 325 0 min 28 W/m 1,7 C 2,3 C 16,1 km/h (3 Bft)
17.11.2019 08:50 2,3 C 96 % 1010,8 hPa 0,0 l/m 5,9 km/h (2 Bft) N-NW 345 0 min 26 W/m 1,7 C 2,3 C 12,9 km/h (3 Bft)
17.11.2019 08:45 2,2 C 97 % 1010,8 hPa 0,0 l/m 6,8 km/h (2 Bft) N 355 0 min 25 W/m 1,8 C 1,8 C 16,1 km/h (3 Bft)
17.11.2019 08:40 2,1 C 96 % 1010,9 hPa 0,0 l/m 4,9 km/h (1 Bft) N-NW 336 0 min 23 W/m 1,5 C 2,1 C 11,3 km/h (2 Bft)
17.11.2019 08:35 2,1 C 96 % 1010,8 hPa 0,0 l/m 4,6 km/h (1 Bft) NW 316 0 min 19 W/m 1,5 C 2,1 C 11,3 km/h (2 Bft)
17.11.2019 08:30 2,1 C 96 % 1010,9 hPa 0,0 l/m 6,5 km/h (2 Bft) NW 326 0 min 18 W/m 1,5 C 2,0 C 14,5 km/h (3 Bft)
17.11.2019 08:25 2,0 C 96 % 1011,0 hPa 0,2 l/m 4,4 km/h (1 Bft) N 355 0 min 16 W/m 1,4 C 2,0 C 8,0 km/h (2 Bft)
17.11.2019 08:20 2,0 C 97 % 1010,8 hPa 0,0 l/m 4,8 km/h (1 Bft) N-NW 328 0 min 14 W/m 1,6 C 2,0 C 9,7 km/h (2 Bft)
17.11.2019 08:15 2,0 C 97 % 1010,9 hPa 0,0 l/m 5,9 km/h (2 Bft) N-NW 337 0 min 14 W/m 1,6 C 2,0 C 11,3 km/h (2 Bft)
17.11.2019 08:10 1,8 C 97 % 1010,8 hPa 0,0 l/m 2,8 km/h (1 Bft) N-NW 342 0 min 12 W/m 1,4 C 1,8 C 11,3 km/h (2 Bft)
17.11.2019 08:05 1,8 C 97 % 1010,9 hPa 0,0 l/m 1,0 km/h (0 Bft) N-NW 329 0 min 9 W/m 1,4 C 1,8 C 4,8 km/h (1 Bft)
17.11.2019 08:00 1,7 C 97 % 1010,9 hPa 0,0 l/m 1,3 km/h (1 Bft) NW 325 0 min 7 W/m 1,3 C 1,7 C 8,0 km/h (2 Bft)
17.11.2019 07:55 1,6 C 97 % 1011,0 hPa 0,0 l/m 2,4 km/h (1 Bft) N-NW 337 0 min 5 W/m 1,2 C 1,6 C 8,0 km/h (2 Bft)
17.11.2019 07:50 1,5 C 96 % 1010,9 hPa 0,0 l/m 0,1 km/h (0 Bft) N-NO 24 0 min 0 W/m 0,9 C 1,5 C 3,2 km/h (1 Bft)
17.11.2019 07:45 1,4 C 96 % 1010,8 hPa 0,0 l/m 0,0 km/h (0 Bft) N-NO 28 0 min 0 W/m 0,8 C 1,4 C 0,0 km/h (0 Bft)
17.11.2019 07:40 1,3 C 97 % 1010,8 hPa 0,0 l/m 0,0 km/h (0 Bft) N-NO 28 0 min 0 W/m 0,9 C 1,3 C 0,0 km/h (0 Bft)
17.11.2019 07:35 1,3 C 97 % 1010,7 hPa 0,0 l/m 0,0 km/h (0 Bft) N-NO 28 0 min 0 W/m 0,9 C 1,3 C 0,0 km/h (0 Bft)
17.11.2019 07:30 1,3 C 97 % 1010,7 hPa 0,0 l/m 0,0 km/h (0 Bft) N-NO 28 0 min 0 W/m 0,9 C 1,3 C 0,0 km/h (0 Bft)
17.11.2019 07:25 1,3 C 97 % 1010,7 hPa 0,0 l/m 0,0 km/h (0 Bft) N-NO 28 0 min 0 W/m 0,9 C 1,3 C 0,0 km/h (0 Bft)
17.11.2019 07:20 1,2 C 97 % 1010,8 hPa 0,0 l/m 0,2 km/h (0 Bft) N-NO 28 0 min 0 W/m 0,8 C 1,2 C 3,2 km/h (1 Bft)
17.11.2019 07:15 1,2 C 96 % 1010,9 hPa 0,0 l/m 0,0 km/h (0 Bft) N-NO 28 0 min 0 W/m 0,6 C 1,2 C 0,0 km/h (0 Bft)
17.11.2019 07:10 1,2 C 96 % 1011,0 hPa 0,0 l/m 0,1 km/h (0 Bft) N-NO 28 0 min 0 W/m 0,6 C 1,2 C 1,6 km/h (1 Bft)
17.11.2019 07:05 1,1 C 97 % 1011,1 hPa 0,0 l/m 0,2 km/h (0 Bft) N-NO 31 0 min 0 W/m 0,7 C 1,1 C 6,4 km/h (2 Bft)
17.11.2019 07:00 0,9 C 97 % 1011,3 hPa 0,0 l/m 0,2 km/h (0 Bft) O 97 0 min 0 W/m 0,5 C 0,9 C 4,8 km/h (1 Bft)
17.11.2019 06:55 0,7 C 96 % 1011,2 hPa 0,0 l/m 0,2 km/h (0 Bft) O 97 0 min 0 W/m 0,1 C 0,7 C 4,8 km/h (1 Bft)
17.11.2019 06:50 0,7 C 96 % 1011,4 hPa 0,0 l/m 0,0 km/h (0 Bft) O-SO 118 0 min 0 W/m 0,1 C 0,7 C 0,0 km/h (0 Bft)
17.11.2019 06:45 0,7 C 96 % 1011,4 hPa 0,0 l/m 0,0 km/h (0 Bft) O-SO 118 0 min 0 W/m 0,1 C 0,7 C 0,0 km/h (0 Bft)
17.11.2019 06:40 0,7 C 96 % 1011,5 hPa 0,0 l/m 0,0 km/h (0 Bft) O-SO 119 0 min 0 W/m 0,1 C 0,7 C 0,0 km/h (0 Bft)
17.11.2019 06:35 0,7 C 96 % 1011,6 hPa 0,0 l/m 0,0 km/h (0 Bft) O-SO 119 0 min 0 W/m 0,1 C 0,7 C 0,0 km/h (0 Bft)
17.11.2019 06:30 0,7 C 96 % 1011,6 hPa 0,0 l/m 0,0 km/h (0 Bft) O-SO 119 0 min 0 W/m 0,1 C 0,7 C 0,0 km/h (0 Bft)
17.11.2019 06:25 0,8 C 96 % 1011,8 hPa 0,0 l/m 0,0 km/h (0 Bft) O-SO 118 0 min 0 W/m 0,2 C 0,8 C 0,0 km/h (0 Bft)
17.11.2019 06:20 0,7 C 96 % 1011,9 hPa 0,0 l/m 0,0 km/h (0 Bft) O-SO 119 0 min 0 W/m 0,1 C 0,7 C 0,0 km/h (0 Bft)
17.11.2019 06:15 0,7 C 96 % 1012,0 hPa 0,0 l/m 0,0 km/h (0 Bft) O-SO 119 0 min 0 W/m 0,1 C 0,7 C 0,0 km/h (0 Bft)
17.11.2019 06:10 0,6 C 96 % 1012,1 hPa 0,0 l/m 0,0 km/h (0 Bft) O-SO 118 0 min 0 W/m 0,0 C 0,6 C 0,0 km/h (0 Bft)
17.11.2019 06:05 0,6 C 96 % 1012,0 hPa 0,0 l/m 0,0 km/h (0 Bft) O-SO 119 0 min 0 W/m 0,0 C 0,6 C 0,0 km/h (0 Bft)
17.11.2019 05:55 0,5 C 96 % 1012,1 hPa 0,0 l/m 0,0 km/h (0 Bft) N 0 0 min 0 W/m -0,1 C 0,5 C 0,0 km/h (0 Bft)
17.11.2019 05:50 0,5 C 96 % 1012,1 hPa 0,0 l/m 0,0 km/h (0 Bft) N 0 0 min 0 W/m -0,1 C 0,5 C 0,0 km/h (0 Bft)
17.11.2019 05:45 0,5 C 96 % 1012,0 hPa 0,0 l/m 0,0 km/h (0 Bft) N 0 0 min 0 W/m -0,1 C 0,5 C 0,0 km/h (0 Bft)
17.11.2019 05:40 0,5 C 96 % 1012,1 hPa 0,0 l/m 0,0 km/h (0 Bft) N 0 0 min 0 W/m -0,1 C 0,5 C 0,0 km/h (0 Bft)
17.11.2019 05:35 0,4 C 96 % 1012,1 hPa 0,0 l/m 0,0 km/h (0 Bft) N 0 0 min 0 W/m -0,2 C 0,4 C 0,0 km/h (0 Bft)
17.11.2019 05:30 0,4 C 96 % 1012,1 hPa 0,0 l/m 0,0 km/h (0 Bft) N 0 0 min 0 W/m -0,2 C 0,4 C 0,0 km/h (0 Bft)
17.11.2019 05:25 0,4 C 96 % 1011,9 hPa 0,0 l/m 0,0 km/h (0 Bft) N 0 0 min 0 W/m -0,2 C 0,4 C 0,0 km/h (0 Bft)
17.11.2019 05:20 0,4 C 96 % 1011,9 hPa 0,0 l/m 0,0 km/h (0 Bft) N 0 0 min 0 W/m -0,2 C 0,4 C 0,0 km/h (0 Bft)
17.11.2019 05:15 0,4 C 96 % 1011,9 hPa 0,0 l/m 0,0 km/h (0 Bft) N 0 0 min 0 W/m -0,2 C 0,4 C 0,0 km/h (0 Bft)
17.11.2019 05:10 0,4 C 96 % 1011,9 hPa 0,0 l/m 0,0 km/h (0 Bft) N 0 0 min 0 W/m -0,2 C 0,4 C 0,0 km/h (0 Bft)
17.11.2019 05:05 0,4 C 96 % 1011,9 hPa 0,0 l/m 0,0 km/h (0 Bft) N 0 0 min 0 W/m -0,2 C 0,4 C 0,0 km/h (0 Bft)
17.11.2019 05:00 0,4 C 96 % 1011,8 hPa 0,0 l/m 0,0 km/h (0 Bft) N 0 0 min 0 W/m -0,2 C 0,4 C 0,0 km/h (0 Bft)
17.11.2019 04:55 0,4 C 96 % 1011,8 hPa 0,0 l/m 0,0 km/h (0 Bft) N 0 0 min 0 W/m -0,2 C 0,4 C 0,0 km/h (0 Bft)
17.11.2019 04:50 0,3 C 96 % 1011,8 hPa 0,0 l/m 0,0 km/h (0 Bft) N 0 0 min 0 W/m -0,3 C 0,3 C 0,0 km/h (0 Bft)
17.11.2019 04:45 0,3 C 96 % 1011,9 hPa 0,0 l/m 0,0 km/h (0 Bft) N 0 0 min 0 W/m -0,3 C 0,3 C 0,0 km/h (0 Bft)
17.11.2019 04:40 0,4 C 96 % 1011,9 hPa 0,0 l/m 0,0 km/h (0 Bft) N 0 0 min 0 W/m -0,2 C 0,4 C 0,0 km/h (0 Bft)
17.11.2019 04:35 0,4 C 96 % 1011,9 hPa 0,0 l/m 0,0 km/h (0 Bft) N 0 0 min 0 W/m -0,2 C 0,4 C 0,0 km/h (0 Bft)
17.11.2019 04:30 0,4 C 96 % 1011,9 hPa 0,0 l/m 0,0 km/h (0 Bft) N 0 0 min 0 W/m -0,2 C 0,4 C 0,0 km/h (0 Bft)
17.11.2019 04:25 0,5 C 96 % 1012,0 hPa 0,0 l/m 0,0 km/h (0 Bft) N 0 0 min 0 W/m -0,1 C 0,5 C 0,0 km/h (0 Bft)
17.11.2019 04:20 0,6 C 96 % 1011,9 hPa 0,0 l/m 0,0 km/h (0 Bft) N 0 0 min 0 W/m 0,0 C 0,6 C 0,0 km/h (0 Bft)
17.11.2019 04:15 0,7 C 96 % 1011,8 hPa 0,0 l/m 0,0 km/h (0 Bft) N 0 0 min 0 W/m 0,1 C 0,7 C 0,0 km/h (0 Bft)
17.11.2019 04:10 0,8 C 96 % 1011,8 hPa 0,0 l/m 0,0 km/h (0 Bft) N 0 0 min 0 W/m 0,2 C 0,8 C 0,0 km/h (0 Bft)
17.11.2019 04:05 0,8 C 96 % 1011,9 hPa 0,0 l/m 0,0 km/h (0 Bft) N 0 0 min 0 W/m 0,2 C 0,8 C 0,0 km/h (0 Bft)
17.11.2019 04:00 0,8 C 96 % 1012,0 hPa 0,0 l/m 0,0 km/h (0 Bft) N 0 0 min 0 W/m 0,2 C 0,8 C 0,0 km/h (0 Bft)
17.11.2019 03:55 0,9 C 96 % 1012,0 hPa 0,0 l/m 0,0 km/h (0 Bft) N 0 0 min 0 W/m 0,3 C 0,9 C 0,0 km/h (0 Bft)
17.11.2019 03:50 0,9 C 96 % 1012,0 hPa 0,0 l/m 0,0 km/h (0 Bft) N 0 0 min 0 W/m 0,3 C 0,9 C 0,0 km/h (0 Bft)
17.11.2019 03:45 0,8 C 96 % 1012,2 hPa 0,0 l/m 0,0 km/h (0 Bft) N 0 0 min 0 W/m 0,2 C 0,8 C 0,0 km/h (0 Bft)
17.11.2019 03:40 0,7 C 96 % 1012,3 hPa 0,0 l/m 1,6 km/h (1 Bft) O-SO 112 0 min 0 W/m 0,1 C 0,7 C 4,8 km/h (1 Bft)
17.11.2019 03:35 0,4 C 96 % 1012,4 hPa 0,0 l/m 0,0 km/h (0 Bft) O-SO 112 0 min 0 W/m -0,2 C 0,4 C 3,2 km/h (1 Bft)
17.11.2019 03:30 0,3 C 96 % 1012,7 hPa 0,0 l/m 0,0 km/h (0 Bft) N 0 0 min 0 W/m -0,3 C 0,3 C 0,0 km/h (0 Bft)
17.11.2019 03:25 0,3 C 96 % 1012,8 hPa 0,0 l/m 0,0 km/h (0 Bft) N 0 0 min 0 W/m -0,3 C 0,3 C 0,0 km/h (0 Bft)
17.11.2019 03:20 0,3 C 96 % 1012,9 hPa 0,0 l/m 0,0 km/h (0 Bft) N 0 0 min 0 W/m -0,3 C 0,3 C 0,0 km/h (0 Bft)
17.11.2019 03:15 0,2 C 96 % 1012,8 hPa 0,0 l/m 0,0 km/h (0 Bft) N 0 0 min 0 W/m -0,4 C 0,2 C 0,0 km/h (0 Bft)
17.11.2019 03:10 0,2 C 96 % 1012,9 hPa 0,0 l/m 0,0 km/h (0 Bft) N 0 0 min 0 W/m -0,4 C 0,2 C 0,0 km/h (0 Bft)
17.11.2019 03:05 0,1 C 96 % 1012,9 hPa 0,0 l/m 0,0 km/h (0 Bft) N 0 0 min 0 W/m -0,5 C 0,1 C 0,0 km/h (0 Bft)
17.11.2019 03:00 0,2 C 95 % 1012,8 hPa 0,0 l/m 0,0 km/h (0 Bft) N 0 0 min 0 W/m -0,5 C 0,2 C 0,0 km/h (0 Bft)
17.11.2019 02:55 0,2 C 96 % 1012,9 hPa 0,0 l/m 0,0 km/h (0 Bft) N 0 0 min 0 W/m -0,4 C 0,2 C 0,0 km/h (0 Bft)
17.11.2019 02:50 0,3 C 96 % 1013,0 hPa 0,0 l/m 0,0 km/h (0 Bft) N 0 0 min 0 W/m -0,3 C 0,3 C 0,0 km/h (0 Bft)
17.11.2019 02:45 0,4 C 95 % 1013,0 hPa 0,0 l/m 0,0 km/h (0 Bft) N 0 0 min 0 W/m -0,3 C 0,4 C 0,0 km/h (0 Bft)
17.11.2019 02:40 0,5 C 96 % 1013,0 hPa 0,0 l/m 0,0 km/h (0 Bft) N 0 0 min 0 W/m -0,1 C 0,5 C 0,0 km/h (0 Bft)
17.11.2019 02:35 0,6 C 96 % 1013,1 hPa 0,0 l/m 0,0 km/h (0 Bft) N 0 0 min 0 W/m 0,0 C 0,6 C 0,0 km/h (0 Bft)
17.11.2019 02:30 0,7 C 96 % 1013,1 hPa 0,0 l/m 0,0 km/h (0 Bft) N 0 0 min 0 W/m 0,1 C 0,7 C 0,0 km/h (0 Bft)
17.11.2019 02:25 0,7 C 96 % 1013,1 hPa 0,0 l/m 0,0 km/h (0 Bft) N 0 0 min 0 W/m 0,1 C 0,7 C 0,0 km/h (0 Bft)
17.11.2019 02:20 0,7 C 96 % 1013,2 hPa 0,0 l/m 0,0 km/h (0 Bft) N 0 0 min 0 W/m 0,1 C 0,7 C 0,0 km/h (0 Bft)
17.11.2019 02:15 0,7 C 96 % 1013,3 hPa 0,0 l/m 0,0 km/h (0 Bft) N 0 0 min 0 W/m 0,1 C 0,7 C 0,0 km/h (0 Bft)
17.11.2019 02:10 0,7 C 96 % 1013,5 hPa 0,0 l/m 0,0 km/h (0 Bft) N 0 0 min 0 W/m 0,1 C 0,7 C 0,0 km/h (0 Bft)
17.11.2019 02:05 0,8 C 96 % 1013,5 hPa 0,0 l/m 0,0 km/h (0 Bft) N 0 0 min 0 W/m 0,2 C 0,8 C 0,0 km/h (0 Bft)
17.11.2019 02:00 0,8 C 96 % 1013,5 hPa 0,0 l/m 0,0 km/h (0 Bft) N 0 0 min 0 W/m 0,2 C 0,8 C 0,0 km/h (0 Bft)
17.11.2019 01:55 0,9 C 96 % 1013,6 hPa 0,0 l/m 0,0 km/h (0 Bft) N 0 0 min 0 W/m 0,3 C 0,9 C 0,0 km/h (0 Bft)
17.11.2019 01:50 0,9 C 96 % 1013,7 hPa 0,0 l/m 0,0 km/h (0 Bft) N 0 0 min 0 W/m 0,3 C 0,9 C 0,0 km/h (0 Bft)
17.11.2019 01:45 0,9 C 96 % 1013,7 hPa 0,0 l/m 0,0 km/h (0 Bft) N 0 0 min 0 W/m 0,3 C 0,9 C 0,0 km/h (0 Bft)
17.11.2019 01:40 0,9 C 96 % 1013,7 hPa 0,0 l/m 0,0 km/h (0 Bft) N 0 0 min 0 W/m 0,3 C 0,9 C 0,0 km/h (0 Bft)
17.11.2019 01:35 0,9 C 96 % 1013,6 hPa 0,0 l/m 0,0 km/h (0 Bft) N 0 0 min 0 W/m 0,3 C 0,9 C 0,0 km/h (0 Bft)
17.11.2019 01:30 0,9 C 96 % 1013,7 hPa 0,0 l/m 0,0 km/h (0 Bft) N 0 0 min 0 W/m 0,3 C 0,9 C 0,0 km/h (0 Bft)
17.11.2019 01:25 0,9 C 96 % 1013,6 hPa 0,0 l/m 0,0 km/h (0 Bft) N 0 0 min 0 W/m 0,3 C 0,9 C 0,0 km/h (0 Bft)
17.11.2019 01:20 0,9 C 96 % 1013,6 hPa 0,0 l/m 0,0 km/h (0 Bft) N 0 0 min 0 W/m 0,3 C 0,9 C 0,0 km/h (0 Bft)
17.11.2019 01:15 1,0 C 96 % 1013,7 hPa 0,0 l/m 0,0 km/h (0 Bft) N 0 0 min 0 W/m 0,4 C 1,0 C 0,0 km/h (0 Bft)
17.11.2019 01:10 0,9 C 96 % 1013,7 hPa 0,0 l/m 0,0 km/h (0 Bft) N 0 0 min 0 W/m 0,3 C 0,9 C 0,0 km/h (0 Bft)
17.11.2019 01:05 0,9 C 96 % 1013,7 hPa 0,0 l/m 0,0 km/h (0 Bft) N 0 0 min 0 W/m 0,3 C 0,9 C 0,0 km/h (0 Bft)
17.11.2019 01:00 0,9 C 96 % 1013,7 hPa 0,0 l/m 0,0 km/h (0 Bft) N 0 0 min 0 W/m 0,3 C 0,9 C 0,0 km/h (0 Bft)
17.11.2019 00:55 0,9 C 96 % 1013,7 hPa 0,0 l/m 0,0 km/h (0 Bft) N 0 0 min 0 W/m 0,3 C 0,9 C 0,0 km/h (0 Bft)
17.11.2019 00:50 0,9 C 96 % 1013,6 hPa 0,0 l/m 0,0 km/h (0 Bft) N 0 0 min 0 W/m 0,3 C 0,9 C 0,0 km/h (0 Bft)
17.11.2019 00:45 0,8 C 96 % 1013,6 hPa 0,0 l/m 0,0 km/h (0 Bft) N 0 0 min 0 W/m 0,2 C 0,8 C 0,0 km/h (0 Bft)
17.11.2019 00:40 0,8 C 96 % 1013,6 hPa 0,0 l/m 0,0 km/h (0 Bft) N 0 0 min 0 W/m 0,2 C 0,8 C 0,0 km/h (0 Bft)
17.11.2019 00:35 0,8 C 96 % 1013,7 hPa 0,0 l/m 0,0 km/h (0 Bft) N 0 0 min 0 W/m 0,2 C 0,8 C 0,0 km/h (0 Bft)
17.11.2019 00:30 0,8 C 96 % 1013,7 hPa 0,0 l/m 0,0 km/h (0 Bft) N 0 0 min 0 W/m 0,2 C 0,8 C 0,0 km/h (0 Bft)
17.11.2019 00:25 0,8 C 96 % 1013,7 hPa 0,0 l/m 0,0 km/h (0 Bft) N 0 0 min 0 W/m 0,2 C 0,8 C 0,0 km/h (0 Bft)
17.11.2019 00:20 0,8 C 96 % 1013,7 hPa 0,0 l/m 0,0 km/h (0 Bft) N 0 0 min 0 W/m 0,2 C 0,8 C 0,0 km/h (0 Bft)
17.11.2019 00:15 0,8 C 96 % 1013,7 hPa 0,0 l/m 0,0 km/h (0 Bft) N 0 0 min 0 W/m 0,2 C 0,8 C 0,0 km/h (0 Bft)
17.11.2019 00:10 0,7 C 96 % 1013,7 hPa 0,0 l/m 0,0 km/h (0 Bft) N 0 0 min 0 W/m 0,1 C 0,7 C 0,0 km/h (0 Bft)
17.11.2019 00:05 0,7 C 95 % 1013,8 hPa 0,0 l/m 0,0 km/h (0 Bft) N 0 0 min 0 W/m -0,0 C 0,7 C 0,0 km/h (0 Bft)
17.11.2019 00:00 0,7 C 95 % 1013,7 hPa 0,0 l/m 0,0 km/h (0 Bft) N 0 0 min 0 W/m -0,0 C 0,7 C 0,0 km/h (0 Bft)
16.11.2019 23:55 0,8 C 95 % 1013,7 hPa 0,0 l/m 0,0 km/h (0 Bft) N 0 0 min 0 W/m 0,1 C 0,8 C 0,0 km/h (0 Bft)
16.11.2019 23:50 0,8 C 95 % 1013,6 hPa 0,0 l/m 0,0 km/h (0 Bft) N 0 0 min 0 W/m 0,1 C 0,8 C 0,0 km/h (0 Bft)
16.11.2019 23:45 0,8 C 95 % 1013,5 hPa 0,0 l/m 0,0 km/h (0 Bft) N 0 0 min 0 W/m 0,1 C 0,8 C 0,0 km/h (0 Bft)
16.11.2019 23:40 0,8 C 96 % 1013,4 hPa 0,0 l/m 0,0 km/h (0 Bft) O-SO 112 0 min 0 W/m 0,2 C 0,8 C 3,2 km/h (1 Bft)
16.11.2019 23:35 0,7 C 95 % 1013,3 hPa 0,0 l/m 0,0 km/h (0 Bft) N 0 0 min 0 W/m -0,0 C 0,7 C 0,0 km/h (0 Bft)
16.11.2019 23:30 0,8 C 95 % 1013,1 hPa 0,0 l/m 0,0 km/h (0 Bft) N 0 0 min 0 W/m 0,1 C 0,8 C 0,0 km/h (0 Bft)
16.11.2019 23:25 0,8 C 95 % 1013,2 hPa 0,0 l/m 0,0 km/h (0 Bft) N 0 0 min 0 W/m 0,1 C 0,8 C 0,0 km/h (0 Bft)
16.11.2019 23:20 0,9 C 95 % 1013,2 hPa 0,0 l/m 0,0 km/h (0 Bft) N 0 0 min 0 W/m 0,2 C 0,9 C 0,0 km/h (0 Bft)
16.11.2019 23:15 1,1 C 95 % 1013,2 hPa 0,0 l/m 0,0 km/h (0 Bft) N 0 0 min 0 W/m 0,4 C 1,1 C 0,0 km/h (0 Bft)
16.11.2019 23:10 1,1 C 95 % 1013,3 hPa 0,0 l/m 0,0 km/h (0 Bft) N 0 0 min 0 W/m 0,4 C 1,1 C 0,0 km/h (0 Bft)
16.11.2019 23:05 1,1 C 95 % 1013,2 hPa 0,0 l/m 0,0 km/h (0 Bft) N 0 0 min 0 W/m 0,4 C 1,1 C 0,0 km/h (0 Bft)
16.11.2019 23:00 0,9 C 96 % 1013,3 hPa 0,0 l/m 0,0 km/h (0 Bft) O-SO 123 0 min 0 W/m 0,3 C 0,9 C 0,0 km/h (0 Bft)
16.11.2019 22:55 0,7 C 95 % 1013,3 hPa 0,0 l/m 0,0 km/h (0 Bft) O-SO 123 0 min 0 W/m -0,0 C 0,7 C 0,0 km/h (0 Bft)
16.11.2019 22:50 0,7 C 94 % 1013,3 hPa 0,0 l/m 0,0 km/h (0 Bft) O-SO 123 0 min 0 W/m -0,2 C 0,7 C 0,0 km/h (0 Bft)
16.11.2019 22:45 0,8 C 94 % 1013,2 hPa 0,0 l/m 0,0 km/h (0 Bft) O-SO 123 0 min 0 W/m -0,1 C 0,8 C 0,0 km/h (0 Bft)
16.11.2019 22:40 0,8 C 94 % 1013,0 hPa 0,0 l/m 0,0 km/h (0 Bft) O-SO 123 0 min 0 W/m -0,1 C 0,8 C 0,0 km/h (0 Bft)
16.11.2019 22:35 0,9 C 94 % 1013,1 hPa 0,0 l/m 0,0 km/h (0 Bft) O-SO 123 0 min 0 W/m 0,0 C 0,9 C 0,0 km/h (0 Bft)
16.11.2019 22:30 1,1 C 94 % 1013,1 hPa 0,0 l/m 0,0 km/h (0 Bft) O-SO 123 0 min 0 W/m 0,2 C 1,1 C 0,0 km/h (0 Bft)
16.11.2019 22:25 1,2 C 94 % 1013,1 hPa 0,0 l/m 0,0 km/h (0 Bft) O-SO 123 0 min 0 W/m 0,3 C 1,2 C 0,0 km/h (0 Bft)
16.11.2019 22:20 1,2 C 94 % 1012,9 hPa 0,0 l/m 0,0 km/h (0 Bft) O-SO 123 0 min 0 W/m 0,3 C 1,2 C 0,0 km/h (0 Bft)
16.11.2019 22:15 1,3 C 94 % 1012,8 hPa 0,0 l/m 0,0 km/h (0 Bft) O-SO 123 0 min 0 W/m 0,4 C 1,3 C 0,0 km/h (0 Bft)
16.11.2019 22:10 1,4 C 94 % 1012,7 hPa 0,0 l/m 0,0 km/h (0 Bft) O-SO 123 0 min 0 W/m 0,5 C 1,4 C 0,0 km/h (0 Bft)
16.11.2019 22:05 1,4 C 94 % 1013,0 hPa 0,0 l/m 0,0 km/h (0 Bft) O-SO 123 0 min 0 W/m 0,5 C 1,4 C 0,0 km/h (0 Bft)
16.11.2019 22:00 1,5 C 94 % 1013,0 hPa 0,0 l/m 0,0 km/h (0 Bft) O-SO 123 0 min 0 W/m 0,6 C 1,5 C 0,0 km/h (0 Bft)
_ Min-Zeit 03:05 12:30 21:00 - 22:00 - - - - 03:00 03:05 22:00
Minimum _ 0,1 C 88 % 1002,6 hPa - 0,0 km/h (0 Bft) - - - - -0,5 C 0,1 C 0,0 km/h (0 Bft)
_ Max-Zeit 20:40 07:00 00:05 08:25 13:30 - - 22:00 11:10 20:25 20:45 13:40
Maximum _ 6,3 C 97 % 1013,8 hPa 0,2 l/m 6,9 km/h
NW (2 Bft)
- - 0 min 95 W/m 5,2 C 6,3 C 20,9 km/h
N-NW (4 Bft)
Durchschnitt _ 3,1 C 94 % 1009,2 hPa #0,6 l/m 1,3 km/h (1 Bft) N-NW - #0 min. 39 W/m 2,2 C 3,1 C 4,7 km/h (1 Bft)